EHI
0 0 0 0 0 0 0 0 0 0 0 0 0 0 0 0 0 0 0 0 0 0 0 1 1 1 0 0 0 0 0 0 0 0 0 0 0 0 0 0 0 0 0
0 0 0 0 0 0 0 0 0 0 0 0 0 0 0 0 0 0 0 0 0 0 0 0 0 0 0 0 0 0 0 0 0 0 0 0 0 0 0 0 0 0 0
0 0 0 0 0 0 0 0 0 0 0 0 0 0 0 0 0 0 0 0 0 0 0 0 0 0 0 0 0 0 0 0 0 0 0 0 0 0 0 0 0 0 0
0 0 0 0 0 0 0 0 0 0 0 0 0 0 0 0 0 0 0 0 0 0 0 0 0 0 0 0 0 0 0 0 0 0 0 0 0 0 0 0 0 0 0
0 0 0 0 0 0 0 0 0 0 0 0 0 0 0 0 0 0 0 0 0 0 0 0 0 0 0 0 0 0 0 0 0 0 0 0 0 0 0 0 0 0 0
0 0 0 0 0 0 0 0 0 0 0 0 0 0 0 0 0 0 0 0 0 0 0 0 0 0 0 0 0 0 0 0 0 0 0 0 0 0 0 0 0 0 0
0 0 0 0 0 0 0 0 0 0 0 0 0 0 0 0 0 0 0 0 0 0 0 0 0 0 0 0 0 0 0 0 0 0 0 0 0 0 0 0 0 0 0
0 0 0 0 0 0 0 0 0 0 0 0 0 0 0 0 0 0 0 0 0 0 0 0 0 0 0 0 0 0 0 0 0 0 0 0 0 0 0 0 0 0 0
0 0 0 0 0 0 0 0 0 0 0 0 0 0 0 0 0 0 0 0 0 0 0 0 0 0 0 0 0 0 0 0 0 0 0 0 0 0 0 0 0 0 0
0 0 0 0 0 0 0 0 0 0 0 0 0 0 0 0 0 0 0 0 0 0 0 0 0 0 0 0 0 0 0 0 0 0 0 0 0 0 0 0 0 0 0
0 0 0 0 0 0 0 0 0 0 0 0 0 0 0 0 0 0 0 0 0 0 0 0 0 0 0 0 0 0 0 0 0 0 0 0 0 0 0 0 0 0 0
0 0 0 0 0 0 0 0 0 0 0 0 0 0 0 0 0 0 0 0 0 0 0 0 0 0 0 0 0 0 0 0 0 0 0 0 0 0 0 0 0 0 0
0 0 0 0 0 0 0 0 0 0 0 0 0 0 0 0 0 0 0 0 0 0 0 0 0 0 0 0 0 0 0 0 0 0 0 0 0 0 0 0 0 0 0
0 0 0 0 0 0 0 0 0 0 0 0 0 0 0 0 0 0 0 0 0 0 0 0 0 0 0 0 0 0 0 0 0 0 0 0 0 0 0 0 0 0 0
0 0 0 0 0 0 0 0 0 0 0 0 0 0 0 0 0 0 0 0 0 0 0 0 0 0 0 0 0 0 0 0 0 0 0 0 0 0 0 0 0 0 0
0 0 0 0 0 0 0 0 0 0 0 0 0 0 0 0 0 0 0 0 0 0 0 0 0 0 0 0 0 0 0 0 0 0 0 0 0 0 0 0 0 0 0
0 0 0 0 0 0 0 0 0 0 0 0 0 0 0 0 0 0 0 0 0 0 0 0 0 0 0 0 0 0 0 0 0 0 0 0 0 0 0 0 0 0 0
0 0 0 0 0 0 0 0 0 0 0 0 0 0 0 0 0 0 0 0 0 0 0 0 0 0 0 0 0 0 0 0 0 0 0 0 0 0 0 0 0 0 0
0 0 0 0 0 0 0 0 0 0 0 0 0 0 0 0 0 0 0 0 0 0 0 0 0 0 0 0 0 0 0 0 0 0 0 0 0 0 0 0 0 0 0
0 0 0 0 0 0 0 0 0 0 0 0 0 0 0 0 0 0 0 0 0 0 0 0 0 0 0 0 0 0 0 0 0 0 0 0 0 0 0 0 0 0 0
0 0 0 0 0 0 0 0 0 0 0 0 0 0 0 0 0 0 0 0 0 0 0 0 0 0 0 0 0 0 0 0 0 0 0 0 0 0 0 0 0 0 0
0 0 0 0 0 0 0 0 0 0 0 0 0 0 0 0 0 0 0 0 0 0 0 0 0 0 0 0 0 0 0 0 0 0 0 0 0 0 0 0 0 0 0
0 0 0 0 0 0 0 0 0 0 0 0 0 0 0 0 0 0 0 0 0 0 0 0 0 0 0 0 0 0 0 0 0 0 0 0 0 0 0 0 0 0 0
0 0 0 0 0 0 0 0 0 0 0 0 0 0 0 0 0 0 0 0 0 0 0 0 0 0 0 0 0 0 0 0 0 0 0 0 0 0 0 0 0 0 0
0 0 0 0 0 0 0 0 0 0 0 0 0 0 0 0 0 0 0 0 0 0 0 0 0 0 0 0 0 0 0 0 0 0 0 0 0 0 0 0 0 0 0
0 0 0 0 0 0 0 0 0 0 0 0 0 0 0 0 0 0 0 0 0 0 0 0 0 0 0 0 0 0 0 0 0 0 0 0 0 0 0 0 0 0 0
Wind_Speed
2 1 2 2 3 3 3 3 3 2 2 2 1 1 1 1 1 2 3 3 3 4 4 3 3 3 3 2 2 2 2 1 1 2 2 2 2 1 1 1 1 1 1
1 0 2 3 3 2 2 3 3 2 2 2 1 1 1 1 1 1 2 2 3 3 4 4 3 3 3 2 2 2 2 1 1 2 2 1 3 3 2 1 1 1 1
4 3 2 2 2 2 2 3 3 2 2 3 2 2 3 2 2 1 1 1 2 3 3 4 4 3 3 3 3 3 3 2 0 1 3 2 1 1 2 2 1 1 1
3 3 3 3 3 2 2 3 3 3 3 3 3 3 2 1 1 1 1 0 1 2 2 4 3 3 3 4 3 2 2 3 2 0 0 1 2 2 1 2 2 2 1
3 4 4 4 2 2 2 2 3 3 2 2 4 3 2 1 1 1 1 0 0 1 1 2 3 3 3 3 3 3 2 2 3 2 1 1 1 1 2 2 2 2 2
3 3 3 3 2 2 2 2 3 2 2 2 3 4 4 3 2 1 1 0 0 0 1 2 2 3 2 3 3 3 3 2 2 2 2 2 2 2 1 2 2 2 2
3 3 3 3 2 2 2 2 2 1 1 2 2 2 3 3 3 2 2 2 1 1 1 1 2 2 2 2 3 3 3 3 3 3 2 2 2 2 2 2 1 1 2
2 4 4 4 3 2 2 2 2 1 1 1 1 1 2 2 2 2 2 2 2 2 1 1 2 2 3 2 2 3 3 3 3 3 3 2 2 2 2 2 2 1 2
2 2 2 2 3 3 2 3 3 2 1 1 1 1 1 1 2 2 2 2 1 1 1 2 2 2 2 2 2 2 2 3 3 3 3 2 2 2 2 2 3 3 2
1 1 2 2 2 2 2 2 2 2 2 1 1 1 1 2 2 2 2 2 2 2 1 2 2 2 2 2 2 2 2 3 3 2 3 2 1 1 1 2 2 2 3
2 2 2 2 2 1 2 2 2 1 1 1 1 1 1 1 1 2 2 2 2 2 2 2 2 2 2 2 3 2 2 3 2 2 3 3 2 2 1 1 1 2 2
2 1 1 1 1 1 1 2 2 2 2 1 1 1 1 1 1 2 2 2 2 2 2 2 2 2 2 2 3 3 3 3 3 3 2 2 1 2 2 2 2 2 2
1 1 0 1 1 2 2 2 2 2 2 1 1 1 1 1 1 2 2 2 2 2 2 2 2 2 2 2 2 3 3 3 3 3 3 3 2 2 2 2 2 2 2
1 1 1 2 2 1 2 2 2 2 2 2 2 2 2 2 2 2 2 2 2 2 2 3 3 2 2 2 2 2 3 3 3 3 3 3 4 4 3 3 3 2 1
1 2 2 2 2 2 2 2 2 2 2 2 2 2 2 1 1 1 1 1 1 2 2 2 2 2 2 2 3 3 3 4 3 3 3 3 4 5 4 3 3 3 2
3 3 3 2 3 3 3 2 2 2 2 3 3 2 2 1 1 1 1 1 1 1 1 1 2 2 2 3 4 3 3 3 4 3 3 3 3 4 4 5 5 4 4
4 4 4 4 4 4 3 3 3 2 2 2 2 2 2 1 1 1 1 2 2 2 2 2 2 2 3 4 5 6 3 3 3 4 3 3 3 3 2 3 4 4 6
3 3 3 3 2 2 2 2 1 1 2 2 2 2 2 2 2 1 2 2 2 2 2 2 3 3 3 5 5 5 3 3 3 3 4 4 3 3 3 2 2 2 3
2 3 3 3 2 1 2 1 1 1 2 2 3 3 3 3 3 3 3 2 2 3 3 3 3 3 4 5 5 5 2 3 3 3 3 4 4 6 5 3 3 3 3
2 2 1 1 1 2 1 1 2 2 3 4 3 3 3 4 4 4 3 2 3 3 3 3 3 3 4 5 6 6 2 3 3 3 3 6 6 7 6 4 4 4 4
2 2 1 1 2 2 1 2 2 3 4 3 2 2 3 4 4 3 2 2 3 3 3 3 3 3 4 5 7 6 3 3 3 3 3 3 7 8 8 6 5 7 5
3 2 1 2 2 2 1 2 3 4 3 2 2 3 3 3 2 2 3 3 3 3 3 3 3 3 4 5 6 7 7 6 4 4 3 4 8 9 9 6 7 8 6
3 2 2 3 3 2 2 3 5 3 2 2 3 3 3 3 3 3 3 3 2 2 3 3 3 3 3 4 7 8 8 8 5 4 7 8 9 8 6 8 9 7 4
3 2 2 2 4 4 3 4 4 2 2 3 3 3 3 3 3 3 3 3 3 3 3 3 4 4 3 3 3 3 4 5 5 4 6 8 8 6 6 6 5 4 4
3 3 3 4 4 4 3 3 3 2 2 3 3 3 3 3 3 3 3 4 4 5 5 4 4 4 5 6 8 5 4 3 4 3 2 3 3 3 3 3 4 4 4
2 2 3 3 4 4 4 4 3 2 3 3 3 2 2 2 3 3 4 5 6 8 9 8 7 6 9 10 11 11 11 10 9 6 4 4 5 5 5 5 4 4 5
Wind_Direction
250 210 151 132 109 94 102 123 113 115 116 110 110 142 152 146 146 156 154 158 160 164 160 157 156 157 163 168 158 143 148 142 111 76 25 1 10 25 19 39 67 17 351
308 174 130 120 118 124 130 115 114 119 127 133 147 149 137 132 147 163 157 165 162 160 162 162 163 162 159 154 148 133 146 160 124 118 109 14 350 350 353 9 43 24 10
201 184 140 139 130 141 151 136 120 111 107 108 104 76 66 65 61 84 144 161 164 163 156 160 164 167 165 171 172 163 150 164 170 126 140 144 220 305 331 349 7 11 18
189 175 160 165 168 182 166 138 126 114 114 115 117 128 130 135 175 183 178 155 149 161 166 160 165 176 174 171 176 170 160 156 168 160 86 157 158 164 309 327 340 357 359
177 173 171 173 173 164 146 132 119 112 111 127 139 138 127 132 129 110 112 148 121 166 168 169 163 171 179 177 171 162 165 162 170 167 156 106 92 148 171 257 308 332 315
170 161 145 129 114 103 111 121 125 123 122 126 134 142 139 132 119 125 139 194 160 230 200 170 172 170 175 188 180 173 175 176 170 168 163 166 170 181 172 211 256 286 292
170 156 145 137 129 124 114 113 118 104 108 117 132 148 154 151 162 184 183 184 192 220 246 187 179 177 176 191 176 173 189 185 179 185 187 187 190 182 175 183 230 279 295
175 176 173 165 160 156 145 137 134 118 135 145 164 162 170 165 181 197 183 190 203 210 214 207 198 189 179 181 178 179 190 181 185 193 190 189 202 186 180 174 175 272 291
168 169 166 165 167 170 175 173 165 161 175 178 171 182 207 200 204 203 186 192 202 196 186 197 196 197 180 178 183 184 191 185 189 193 195 199 207 192 191 180 174 175 234
151 154 170 176 178 182 180 171 177 184 192 192 200 196 226 231 215 189 185 190 201 191 179 208 201 196 180 171 184 186 189 186 194 188 189 203 208 191 186 183 184 182 199
194 203 206 202 188 163 161 171 180 176 190 202 209 206 227 231 200 185 195 191 192 188 191 207 207 205 197 182 185 190 185 184 194 194 189 209 196 186 196 188 187 199 193
202 211 205 184 177 200 210 201 192 190 206 204 193 218 239 206 188 187 194 188 188 192 189 197 205 215 215 201 192 189 190 190 196 202 190 217 204 198 203 199 208 216 210
214 222 245 216 224 222 218 221 214 212 204 172 160 184 229 208 192 190 190 189 188 191 187 187 208 220 225 217 209 195 196 200 205 204 197 209 199 216 216 210 216 229 232
218 215 235 250 252 251 237 234 230 216 201 175 173 193 221 223 211 192 182 192 191 190 199 202 212 216 222 222 219 211 209 210 217 215 208 209 208 215 216 218 218 218 222
243 234 240 252 260 263 273 260 244 225 198 180 192 215 225 215 191 182 185 188 185 194 201 203 216 223 223 223 219 220 216 212 220 224 218 217 224 229 226 223 213 204 212
245 243 246 243 242 240 242 252 248 237 204 193 204 207 199 190 201 215 195 190 203 211 196 200 216 231 248 258 244 228 215 215 214 223 230 229 230 239 249 248 238 220 213
255 247 244 239 237 237 232 233 241 228 204 209 215 206 197 197 217 222 203 207 218 221 220 221 219 238 257 270 270 254 225 214 216 216 220 237 242 250 231 254 264 259 257
262 260 248 252 257 262 262 251 251 212 206 216 231 229 220 216 220 215 225 233 226 220 227 230 228 236 254 267 273 266 233 212 218 220 219 222 232 234 227 224 245 253 260
257 259 248 239 242 258 266 253 264 241 223 229 234 231 222 219 220 229 241 244 229 233 233 229 228 234 255 265 270 269 216 216 230 229 223 223 224 243 250 230 234 259 268
290 286 275 292 269 265 242 212 240 241 243 240 236 231 220 217 221 228 239 246 235 235 238 236 229 231 246 264 272 269 222 223 234 235 232 239 242 249 254 230 223 246 256
299 297 290 285 268 262 213 226 241 247 255 255 245 239 230 226 225 227 234 240 245 244 241 246 249 240 245 261 267 265 237 225 231 236 239 240 255 260 260 253 234 245 254
302 304 308 296 289 271 227 241 254 259 265 261 249 248 246 242 236 228 243 244 240 247 250 251 263 254 251 257 263 263 258 251 235 239 238 240 254 260 261 257 251 258 261
276 280 281 295 296 278 238 243 259 262 259 261 253 251 254 250 240 229 235 246 242 241 250 244 255 264 255 256 263 266 266 265 256 243 245 250 256 258 255 251 254 256 241
267 271 275 285 290 286 269 251 259 256 244 257 264 260 255 253 251 242 231 228 231 237 244 244 250 260 261 252 248 248 258 264 266 258 253 257 260 258 253 253 252 239 231
260 251 251 259 271 282 286 279 265 250 250 257 258 260 254 249 252 248 238 233 232 230 237 239 237 245 260 260 261 258 249 239 241 249 243 240 240 241 244 242 239 235 236
265 268 270 270 279 285 286 286 274 246 243 257 258 255 255 255 253 258 273 257 250 262 263 260 255 257 260 270 270 270 268 265 259 257 239 239 237 239 241 240 242 236 232